User: anonymous   Login
Location: Copper Breaks State Park
(34.1132°N, 99.7492°W)
Time: 15:16:03
(UTC-05:00)
Language:

SL-16 R/B - Orbit

View from above orbital plane
View from above orbital plane
View from above satellite
View from above satellite

Ground track
Ground track

The orbit data is extracted from the following two-line orbital elements,

1 27006U 01056F   16151.51283534 -.00000050  00000-0 -79760-5 0  9993
2 27006  99.2566 299.6301 0014038 225.1707 175.9606 13.70969692724069
Epoch (UTC): 30 May 2016 12:18:28
Eccentricity: 0.0014038
inclination: 99.2566°
perigee height: 986 km
apogee height: 1006 km
right ascension of ascending node: 299.6301°
argument of perigee: 225.1707°
revolutions per day: 13.70969692
mean anomaly at epoch: 175.9606°
orbit number at epoch: 72406

The dashed part of the orbit path shows where the satellite is in the earth's shadow,  

DLR